Change the Weather History Date:

Friday, March 21, 2014

  Actual Average (KBJC) Record (KBJC)
Temperature  
Mean Temperature 34 °F -  
Max Temperature 45 °F 52 °F 73 °F (2009)
Min Temperature 23 °F 32 °F 4 °F (1987)
Degree Days  
Heating Degree Days 31    
Moisture  
Dew Point 18 °F    
Average Humidity 54    
Maximum Humidity 79    
Minimum Humidity 32    
Precipitation  
Precipitation 0.00 in - - ()
Sea Level Pressure  
Sea Level Pressure 30.04 in    
Wind  
Wind Speed 4 mph (ESE)    
Max Wind Speed 12 mph    
Max Gust Speed 21 mph    
Visibility 10 miles    
Events      
Averages and records for this station are not official NWS values.
T = Trace of Precipitation, MM = Missing Value Source: NWS Daily Summary

Daily Weather History Graph

Daily Weather History Graph

Search for Another Location

Airport or City:

Trip Planner

Search our weather history database for the weather conditions in past years. The results will help you decide how hot, cold, wet, or windy it might be!

Date:

Astronomy

Mar. 21, 2014 Rise Set
Actual Time 7:01 AM MDT 7:13 PM MDT
Civil Twilight 6:34 AM MDT 7:40 PM MDT
Nautical Twilight 6:03 AM MDT 8:12 PM MDT
Astronomical Twilight 5:31 AM MDT 8:44 PM MDT
Moon No Moon Rise 9:55 AM MDT (3/21)
Length of Visible Light 13h 05m
Length of Day
12h 11m
Waning Gibbous, 75% of the Moon is Illuminated
Mar 21
Waning Gibbous
Mar 23
Last Quarter
Mar 30
New
Apr 7
First Quarter
Apr 15
Full

Hourly Weather History & Observations

Time (MDT) Temp. Windchill Dew Point Humidity Pressure Visibility Wind Dir Wind Speed Gust Speed Precip Events Conditions
12:16 AM - - - N/A% 29.85 in 10.0 mi Calm Calm - N/A   Clear
12:36 AM - - - N/A% 29.84 in 10.0 mi SSW 3.5 mph - N/A   Clear
12:56 AM - - - N/A% 29.84 in 10.0 mi Calm Calm - N/A   Clear
1:16 AM - - - N/A% 29.85 in 10.0 mi Calm Calm - N/A   Clear
1:36 AM - - - N/A% 29.85 in 10.0 mi Calm Calm - N/A   Clear
1:56 AM 32.2 °F - 13.6 °F 46% 29.87 in 10.0 mi Calm Calm - N/A   Clear
2:16 AM - - - N/A% 29.91 in 10.0 mi NNE 8.1 mph 20.7 mph N/A   Clear
2:36 AM - - - N/A% 29.93 in 10.0 mi NE 9.2 mph - N/A   Clear
2:56 AM - - - N/A% 29.94 in 10.0 mi NNE 6.9 mph - N/A   Clear
3:16 AM - - - N/A% 29.96 in 10.0 mi North 3.5 mph - N/A   Clear
3:36 AM - - - N/A% 29.97 in 10.0 mi Calm Calm - N/A   Clear
3:56 AM - - - N/A% 29.98 in 10.0 mi Calm Calm - N/A   Clear
4:16 AM - - - N/A% 29.98 in 10.0 mi South 3.5 mph - N/A   Clear
4:36 AM - - - N/A% 29.98 in 10.0 mi SSE 5.8 mph - N/A   Clear
4:56 AM - - - N/A% 30.00 in 10.0 mi SSW 4.6 mph - N/A   Clear
5:16 AM - - - N/A% 30.00 in 10.0 mi South 5.8 mph - N/A   Clear
5:36 AM - - - N/A% 30.01 in 10.0 mi South 4.6 mph - N/A   Clear
5:56 AM - - - N/A% 30.00 in 10.0 mi South 6.9 mph - N/A   Clear
6:16 AM - - - N/A% 30.02 in 10.0 mi SSE 4.6 mph - N/A   Clear
6:36 AM - - - N/A% 30.03 in 10.0 mi Calm Calm - N/A   Clear
6:55 AM 25.7 °F - 18.5 °F 74% 30.03 in 10.0 mi Calm Calm - N/A   Clear
7:16 AM 23.2 °F - 17.4 °F 79% 30.03 in 10.0 mi Calm Calm - N/A   Clear
7:36 AM 24.4 °F - 17.8 °F 76% 30.05 in 10.0 mi Calm Calm - N/A   Clear
7:56 AM 27.3 °F - 19.6 °F 73% 30.05 in 10.0 mi Calm Calm - N/A   Clear
8:16 AM 31.5 °F - 20.1 °F 63% 30.05 in 10.0 mi Calm Calm - N/A   Clear
8:36 AM - - - N/A% 30.05 in 10.0 mi East 5.8 mph - N/A   Clear
8:56 AM - - - N/A% 30.06 in 10.0 mi East 8.1 mph - N/A   Clear
9:16 AM - - - N/A% 30.07 in 10.0 mi East 9.2 mph - N/A   Clear
9:36 AM - - - N/A% 30.08 in 10.0 mi East 8.1 mph - N/A   Clear
9:56 AM - - - N/A% 30.09 in 10.0 mi ENE 10.4 mph - N/A   Clear
10:16 AM - - - N/A% 30.09 in 10.0 mi ENE 8.1 mph 18.4 mph N/A   Clear
10:36 AM - - - N/A% 30.10 in 10.0 mi NE 10.4 mph - N/A   Clear
10:56 AM - - - N/A% 30.09 in 10.0 mi ENE 9.2 mph - N/A   Clear
11:16 AM - - - N/A% 30.10 in 10.0 mi NE 11.5 mph - N/A   Clear
11:36 AM - - - N/A% 30.11 in 10.0 mi East 6.9 mph - N/A   Clear
11:56 AM - - - N/A% 30.10 in 10.0 mi ENE 8.1 mph - N/A   Clear
12:16 PM - - - N/A% 30.10 in 10.0 mi East 8.1 mph - N/A   Clear
12:36 PM - - - N/A% 30.10 in 10.0 mi East 5.8 mph - N/A   Clear
12:56 PM - - - N/A% 30.10 in 10.0 mi East 8.1 mph 16.1 mph N/A   Clear
1:15 PM - - - N/A% 30.09 in 10.0 mi ESE 4.6 mph - N/A   Clear
1:36 PM - - - N/A% 30.09 in 10.0 mi East 6.9 mph - N/A   Clear
1:56 PM - - - N/A% 30.08 in 10.0 mi ESE 3.5 mph - N/A   Clear
2:16 PM - - - N/A% 30.08 in 10.0 mi ESE 4.6 mph - N/A   Clear
2:35 PM - - - N/A% 30.08 in 10.0 mi East 6.9 mph - N/A   Clear
2:56 PM - - - N/A% 30.07 in 10.0 mi SE 5.8 mph - N/A   Clear
3:16 PM 45.7 °F 41.5 °F 17.4 °F 32% 30.07 in 10.0 mi ESE 8.1 mph - N/A   Clear
3:36 PM - - - N/A% 30.07 in 10.0 mi ESE 5.8 mph - N/A   Scattered Clouds
3:56 PM - - - N/A% 30.07 in 10.0 mi SE 6.9 mph 16.1 mph N/A   Clear
4:16 PM - - - N/A% 30.06 in 10.0 mi East 5.8 mph - N/A   Clear
4:36 PM - - - N/A% 30.07 in 10.0 mi ESE 10.4 mph - N/A   Clear
4:56 PM - - - N/A% 30.07 in 10.0 mi ESE 4.6 mph - N/A   Clear
5:16 PM - - - N/A% 30.07 in 10.0 mi SE 5.8 mph - N/A   Clear
5:36 PM - - - N/A% 30.07 in 10.0 mi ESE 5.8 mph - N/A   Clear
5:56 PM - - - N/A% 30.07 in 10.0 mi ESE 8.1 mph - N/A   Scattered Clouds
6:16 PM - - - N/A% 30.07 in 10.0 mi East 8.1 mph - N/A   Scattered Clouds
6:36 PM - - - N/A% 30.07 in 10.0 mi East 8.1 mph - N/A   Scattered Clouds
6:56 PM - - - N/A% 30.08 in 10.0 mi East 8.1 mph - N/A   Clear
7:16 PM - - - N/A% 30.08 in 10.0 mi East 6.9 mph - N/A   Clear
7:36 PM - - - N/A% 30.08 in 10.0 mi East 6.9 mph - N/A   Scattered Clouds
7:56 PM - - - N/A% 30.09 in 10.0 mi ESE 6.9 mph - N/A   Overcast
8:16 PM - - - N/A% 30.10 in 10.0 mi ESE 6.9 mph - N/A   Overcast
8:36 PM - - - N/A% 30.11 in 10.0 mi ESE 4.6 mph - N/A   Overcast
8:56 PM - - - N/A% 30.12 in 10.0 mi SE 6.9 mph - N/A   Overcast
9:16 PM - - - N/A% 30.12 in 10.0 mi SE 9.2 mph - N/A   Overcast
9:36 PM 39.2 °F 34.2 °F 18.5 °F 43% 30.12 in 10.0 mi ESE 6.9 mph - N/A   Overcast
9:56 PM 38.7 °F 33.6 °F 19.0 °F 45% 30.12 in 10.0 mi ESE 6.9 mph - N/A   Overcast
10:16 PM 38.3 °F 32.5 °F 18.5 °F 45% 30.12 in 10.0 mi ESE 8.1 mph - N/A   Overcast
10:36 PM - - - N/A% 30.11 in 10.0 mi SE 6.9 mph - N/A   Overcast
10:56 PM 39.2 °F 34.2 °F 18.5 °F 43% 30.11 in 10.0 mi ESE 6.9 mph - N/A   Overcast
11:16 PM 39.4 °F 33.8 °F 18.3 °F 43% 30.11 in 10.0 mi ESE 8.1 mph - N/A   Overcast
11:36 PM - - - N/A% 30.11 in 10.0 mi SE 4.6 mph - N/A   Overcast
11:56 PM 39.2 °F 33.6 °F 17.8 °F 42% 30.11 in 10.0 mi SE 8.1 mph - N/A   Overcast